Regional Weather Roundup
Issued by NWS

Home | Current Version | Previous Version | Text Only | Print | Product List | Glossary On
Versions: 1 2 3 4 5 6 7 8 9 10 11 12 13 14 15 16 17 18 19 20 21 22 23 24 25 26 27 28 29 30 31 32 33 34 35 36 37 38 39 40 41 42 43 44 45 46 47 48 49 50
000
ASUS43 KFSD 010710
RWRSD

WEATHER ROUNDUP FOR SOUTH DAKOTA
NATIONAL WEATHER SERVICE SIOUX FALLS SD
200 AM CDT SAT AUG 01 2015

NOTE: "FAIR" INDICATES FEW OR NO CLOUDS BELOW 12,000 FEET WITH NO
SIGNIFICANT WEATHER AND/OR OBSTRUCTIONS TO VISIBILITY.


SDZ001>005-009-010-012>017-010800-
NORTHWEST AND NORTH CENTRAL SOUTH DAKOTA

CITY           SKY/WX    TMP DP  RH WIND       PRES   REMARKS
BUFFALO          N/A     69  48  47 S10       29.99F
FAITH            N/A     62  44  51 S14       30.05F
MOBRIDGE       PTCLDY    68  55  63 E8        30.00F
$$

SDZ012>016-024>037-041>051-057-063-072>074-010800-
SOUTHWEST AND SOUTH CENTRAL SOUTH DAKOTA

CITY           SKY/WX    TMP DP  RH WIND       PRES   REMARKS
RAPID CTY ARPT CLEAR     67  54  63 S6        30.11F
PIERRE         CLEAR     72  60  66 S14       30.02F
CUSTER         PTCLDY    63  49  60 CALM      30.27F
ELLSWORTH AFB  PTCLDY    69  54  58 S8        30.10F
PHILIP         MOCLDY    73  59  61 S17G24    30.05F
PINE RIDGE     CLEAR     71  54  54 NE5       30.11F
WINNER         FAIR      73  63  70 S12       30.08F
$$

SDZ004>011-016>023-039-040-010800-
NORTHEAST SOUTH DAKOTA

CITY           SKY/WX    TMP DP  RH WIND       PRES   REMARKS
ABERDEEN       CLEAR     57  54  89 SW6       30.02S
WATERTOWN      CLEAR     64  57  78 W5        30.04S
BROOKINGS      CLEAR     64  57  77 SW5       30.07S
SISSETON         N/A     62  60  93 NW3       30.00R
$$

SDZ017-020-022-023-036>040-048>070-010800-
SOUTHEAST SOUTH DAKOTA

CITY           SKY/WX    TMP DP  RH WIND       PRES   REMARKS
SIOUX FALLS    CLEAR     71  63  75 SW6       30.06S
HURON          CLEAR     70  62  76 SW12      30.02F
CHAMBERLAIN    CLEAR     66  63  91 S5        30.06F
MITCHELL       CLEAR     70  66  87 S9        30.05F
YANKTON        CLEAR     70  66  88 SW5       30.06F
$$

ABBREVIATIONS USED IN REMARKS
   TC - TEMPERATURE IN CELSIUS
  WCI - WIND CHILL INDEX
   HX - HEAT INDEX
  VSB - VISIBILITY




USA.gov is the U.S. government's official web portal to all federal, state and local government web resources and services.